User: anonymous   Login
Location: Pabrico
(37.5827°N, 122.0063°W)
Time: 08:44:55
(UTC+00:00)
Language:

Cosmos 1666 Rocket - Orbit

View from above orbital plane
View from above orbital plane
View from above satellite
View from above satellite

Ground track
Ground track

The orbit data is extracted from the following two-line orbital elements,

1 15890U 85058B   24166.71617231  .00000690  00000-0  78522-4 0  9999
2 15890  82.5265  29.1689 0022038  76.2163 284.1503 14.84594808 82507
Epoch (UTC): 14 June 2024 17:11:17
Eccentricity: 0.0022038
inclination: 82.5265°
perigee height: 599 km
apogee height: 630 km
right ascension of ascending node: 29.1689°
argument of perigee: 76.2163°
revolutions per day: 14.84594808
mean anomaly at epoch: 284.1503°
orbit number at epoch: 8250

The dashed part of the orbit path shows where the satellite is in the earth's shadow,  

DLR